This is the latest recevied weather packets stored in our database for station/object DB8NZ-11. If no packets are shown the sender has not sent any weather packets the latest 10 day(s).
| Time | Temp. | Humidity | Pressure | Rain* | Wind** | Luminosity | Snow |
|---|---|---|---|---|---|---|---|
| 1777613256 | 4.44° C | 71% | 1033.6 hPa | - | - | - | - |
| 1777612536 | 3.33° C | 71% | 1033.6 hPa | - | - | - | - |
| 1777611636 | 2.78° C | 69% | 1033.6 hPa | - | - | - | - |
| 1777610736 | 2.78° C | 69% | 1033.5 hPa | - | - | - | - |
| 1777610207 | 2.78° C | 69% | 1033.5 hPa | - | - | - | - |
| 1777609384 | 2.78° C | 68% | 1033.4 hPa | - | - | - | - |
| 1777608484 | 2.78° C | 69% | 1033.4 hPa | - | - | - | - |
| 1777607584 | 2.78° C | 67% | 1033.5 hPa | - | - | - | - |
| 1777606684 | 2.78° C | 67% | 1033.3 hPa | - | - | - | - |
| 1777605784 | 2.78° C | 65% | 1033.3 hPa | - | - | - | - |
| 1777604884 | 3.33° C | 65% | 1033.3 hPa | - | - | - | - |
| 1777603983 | 3.33° C | 65% | 1033.2 hPa | - | - | - | - |
| 1777603731 | 3.33° C | 64% | 1033.2 hPa | - | - | - | - |
| 1777602831 | 3.89° C | 64% | 1033.2 hPa | - | - | - | - |
| 1777601931 | 3.89° C | 62% | 1033.3 hPa | - | - | - | - |
| 1777601030 | 3.89° C | 63% | 1033.2 hPa | - | - | - | - |
| 1777600130 | 3.89° C | 62% | 1033.3 hPa | - | - | - | - |
| 1777599230 | 3.89° C | 62% | 1033.3 hPa | - | - | - | - |
| 1777598330 | 4.44° C | 61% | 1033.3 hPa | - | - | - | - |
| 1777596530 | 5° C | 60% | 1033.4 hPa | - | - | - | - |
| 1777595630 | 5° C | 60% | 1033.3 hPa | - | - | - | - |
| 1777594730 | 5° C | 58% | 1033.3 hPa | - | - | - | - |
| 1777592930 | 6.11° C | 55% | 1033.2 hPa | - | - | - | - |
| 1777592030 | 6.11° C | 53% | 1033.4 hPa | - | - | - | - |
| 1777591130 | 6.67° C | 52% | 1033.3 hPa | - | - | - | - |
* Rain since midnight (hover to see other rain measurements)
** Current wind speed in m/s (hover to see current wind gust speed)